Погода Брохово

Погода Брохово : погода сейчас, прогноз погоды и архив. Всё, что Вы хотите узнать о погоде Брохово!

Поиск расширенной информации на нашем сайте:

Другие новости

Новости СМИ2

Главная страница сайта

Новости сайта

03.07.2017

Напоминаем, что на нашем специализированном сайте Метеоцентр.Азия вы можете получить высокодетализированные автоматические прогнозы погоды по пунктам России, СНГ и мира в авиационном формате (включающие направление и скорость ветра, видимость, явления погоды, количество и форму облачности, нижнюю и верхнюю границу облачности).


Погода Брохово - сегодня

Время (UTC), дата Ветер
(°,м/с) 
Видим.   Явления Облачность Т
(°С)
Тd
(°С)
f(%) Тe
(°С)
Pmin
(гПа)
dP
(гПа)
Po
(мм)
O2
(г/м3)
Тmin Tmax R s Состояние
почвы
18 19.10.17 290 (З) 20000 м    3/3 600 м 
[Sc]
-6.2 -11.6 66 -11  1025  0.1  768  318           
21 19.10.17 290 (З) 20000 м    1/1 600 м 
[Sc]
-7 -12.7 64 -12  1025.7  0.7  769  319  -7      12  равномерный
мокрый или
старый снег
100% 
00 20.10.17 300 (СЗ) 20000 м    ясно 
-5.1 -12.5 56 -9  1026.3  0.6  769  317  -7.3         
03 20.10.17 210 (ЮЗ) 20000 м    ясно 
-1.7 -10.4 51 -3  1026.3  769  313           
06 20.10.17 230 (ЮЗ) 20000 м    1/1 600 м 
[Sc]
-2.4 -10.2 55 -4  1026.7  0.4  770  314           
09 20.10.17 310 (СЗ) 20000 м    ясно 
-6.1 -11 68 -11  1027.9  1.2  770  319    -1.4       
12 20.10.17 290 (З) 20000 м    ясно 
-6.4 -10.9 70 -11  1029.1  1.2  771  319           
15 20.10.17 280 (З) 20000 м    ясно 
-7.9 -13 67 -12  1030.1  772  322           
18 20.10.17 290 (З) 20000 м    ясно 
-8.5 -13.3 68 -14  1031.2  1.1  773  323           
21 20.10.17 300 (СЗ) 20000 м    3/1 600 м верхняя 
[Sc|Ci fib]
-9.3 -13.8 70 -13  1032  0.8  773  324  -9.3      12  равномерный
мокрый или
старый снег
100% 
00 21.10.17 300 (СЗ) 20000 м    3/0 верхняя 
[Ci fib]
-5.5   1033  774    -9.4         
03 21.10.17 190 (Ю) 20000 м    1/0 верхняя 
[Ci fib]
-1.8 -8.3 61 -3  1034  775  315           
06 21.10.17 200 (Ю) 20000 м    1/0 верхняя 
[Ci fib]
-5.8 -12.5 59 -9  1034.1  0.1  775  320           
09 21.10.17 220 (ЮЗ) 20000 м    1/0 верхняя 
[Ci fib]
-4.5 -9.7 67 -8  1033.5  -0.6  775  318    -1.6       
12 21.10.17 260 (З) 20000 м    ясно 
-9 -15.7 58 -13  1034  0.5  775  324           
15 21.10.17 270 (З) 20000 м    ясно 
-10 -18 52 -14  1033.5  -0.5  775  325           
18 21.10.17 290 (З) 20000 м    ясно 
-10.6 -19 50 -15  1033.1  -0.4  774  326           
21 21.10.17 300 (СЗ) 20000 м    ясно 
-11 -18.1 56 -14  1032.5  -0.6  774  326  -11.1      12  равномерный
мокрый или
старый снег
100% 
00 22.10.17 310 (СЗ) 20000 м    3/0 верхняя 
[Ci fib]
-7.5 -14 60 -9  1031.8  -0.7  773  322           
03 22.10.17 тихо ()   20000 м    9/0 средняя, верхняя 
[Ac lent|Ci]
-3.3 -9.3 63 -3  1030.4  -1.4  772  316           
06 22.10.17 110 (В) 20000 м    10/1 600 м кучево-дожд., средняя, верхняя 
[Cb cap|Ac lent|Cs]
-0.6 -6.3 65 -3  1027.9  -2.5  770  312           
09 22.10.17 100 (В) 20000 м    10/3 600 м кучево-дожд., средняя 
[Cb cap|Ac und]
+0 -6.7 61 -4  1025.5  -2.4  769  310    +0       
12 22.10.17 100 (В) 11-14{14}  20000 м    10/3 600 м кучево-дожд., средняя 
[Cb cap|Ac und]
+0.5 -4.5 69 -5  1023.2  -2.3  767  309           
15 22.10.17 080 (В) 13-16{16}  20000 м  позёмок  10/3 600 м кучево-дожд., средняя 
[Cb cap|Ac und]
+0.2 -4.2 72 -5  1018.9  -4.3  764  308           
18 22.10.17 090 (В) 16-19{19}  20000 м  позёмок  10/3 600 м кучево-дожд., средняя 
[Cb cap|Ac und]
-0.3 -3.7 78 -7  1015.2  -3.7  761  307           
Время (UTC), дата Ветер
(°,м/с) 
Видим.   Явления Облачность Т
(°С)
Тd
(°С)
f(%) Тe
(°С)
Pmin
(гПа)
dP
(гПа)
Po
(мм)
O2
(г/м3)
Тmin Tmax R s Состояние
почвы

Для получения пояснительной информации подведите курсор к названию столбца.

ПОГОДА Брохово - архив

Всё, что Вы хотите узнать о погоде Брохово - удобно и подробно!

Выберите нужную дату (начиная с 1 января 2015* года) и нажмите кнопку "Найти".
Будут отображены архивные сводки погоды по пункту Брохово, начиная с указанной даты.


Отображать данные в формате CSV (для использования в таблицах Excel)


Внимание! Наш архив погоды предназначен исключительно для личного некоммерческого использования в познавательных целях. Если Вам необходимы официальные справки о состоянии погоды (для производственных, юридических, коммерческих и т.п. целей), обращайтесь в органы Росгидромета.

*Примечание: данная дата относится к архиву по метеостанциям СССР (Россия, СНГ, Балтия).
Архив по метеостанциям Зарубежной Европы и Азии (кроме Китая) хранится 10 дней, по другим регионам земного шара (Китай, Африка, Америка, Австралия, Океания) - 1 день.

Брохово - район местоположения метеостанции


Название, широта, долгота, высота метеостанции:
Брохово 59.7°ш. 154.3°д. 5 м над ур. моря [Российская Федерация]

Дополнительная информация

В oтличие oт бoльшинства пoгoдных сайтoв мы публикуем пoдрoбную метеoинфoрмацию в детальнoм прoфессиoнальнoм фoрмате.

Характеристики температуры и влажнoсти вoздуха измеряются на высoте 2 м в тени вдали oт зданий и деревьев.
Скoрoсть ветра измеряется на высoте 10 м (на урoвне рoста челoвека скoрoсть ветра ниже в 1.5-2 раза). Если метеoстанция нахoдится в гoрoде или в лесу, тo скoрoсть ветра занижена на 2-4 м/с пo сравнению с oткрытым местoм. Скoрoсть ветра над акватoриями крупных рек и oзёр, а также на вершинах хoлмoв на 2-5 м/с выше, чем в oбычных услoвиях.
Атмoсфернoе давление в разных тoчках местнoсти мoжет значительнo oтличаться oт давления на метеoстанции, в зависимoсти oт услoвий рельефа (при пoдъёме на 10 м давление пoнижается примернo на 1 мм рт.ст.).